STARLINK N

Last updated on Wed Apr 23 2025 00:02:06 GMT+0000 (Coordinated Universal Time)

1 63581U 25076N 25112.75002315 -.00824936 21730-3 -21409-2 0 9995 2 63581 43.0019 346.1419 0002056 249.3258 349.2750 15.94099324 2486

Satellite not in orbit

STARLINK N